SCP
0 0 1 1 1 1 0 0 0 0 0 0 0 1 1 1 1 1 1 1 1 1 1 1 2 2 2 2 3 2 2 2 2 2 2 1 1 1 1 1 1 1 1 1 1 1 1 1 1
0 0 1 1 1 1 0 0 0 0 0 0 0 1 1 1 1 1 1 1 2 2 1 1 1 2 2 2 3 3 2 2 2 2 2 1 1 1 1 1 1 1 1 1 1 1 1 1 1
0 0 1 1 1 0 0 0 0 0 0 0 0 1 1 0 1 1 1 2 2 2 1 1 1 2 2 2 3 3 3 2 2 2 1 1 1 1 1 1 1 1 1 1 1 1 1 1 1
0 0 1 1 0 0 0 0 0 0 0 0 0 0 0 1 1 1 1 2 2 2 2 1 1 1 2 2 2 2 3 2 2 2 1 1 1 1 1 1 1 1 1 1 1 1 1 1 1
0 1 1 0 0 0 0 0 0 0 0 0 1 1 1 1 2 2 1 2 2 2 2 1 1 1 2 2 2 2 2 2 2 2 2 1 1 1 1 1 1 1 1 1 1 1 1 1 1
0 0 0 0 0 0 0 0 0 0 0 0 1 1 1 2 3 2 2 2 2 3 2 2 1 1 1 2 2 2 2 2 2 2 2 2 1 1 1 1 1 1 1 1 1 1 1 1 1
0 0 0 0 0 0 0 0 0 0 0 0 1 1 1 2 3 3 2 2 2 3 2 2 1 1 1 2 2 2 2 2 2 2 2 1 1 1 1 1 1 1 1 1 1 1 1 1 1
0 0 0 0 0 0 0 0 0 0 0 0 1 1 1 1 3 3 3 2 2 2 2 2 2 1 1 2 2 2 2 2 2 1 1 1 1 1 1 2 2 1 1 1 1 1 1 1 1
0 0 0 0 0 0 0 0 0 0 0 1 2 2 1 1 3 4 4 3 2 2 2 2 2 2 2 2 2 2 2 2 2 2 1 1 1 1 1 2 1 1 1 2 2 1 1 1 1
0 0 0 0 0 0 0 0 0 0 1 2 3 3 2 2 3 5 4 3 2 2 2 3 3 2 2 2 2 2 2 2 2 2 2 2 2 2 1 1 1 1 1 2 2 2 1 1 1
0 0 0 0 0 0 0 0 0 0 0 2 3 3 2 3 4 5 5 4 3 2 2 3 3 3 2 2 2 1 2 2 2 2 2 2 2 2 2 1 1 1 1 1 1 1 1 1 1
0 0 0 0 0 0 0 0 0 0 0 1 2 2 2 2 3 4 4 4 3 3 3 3 3 3 3 2 2 1 1 1 1 1 2 2 2 2 2 1 1 1 1 1 1 1 1 1 1
0 0 0 0 0 0 0 0 0 0 0 0 1 2 2 2 2 2 3 3 4 3 3 3 3 3 3 2 2 2 1 1 1 1 1 2 2 2 2 1 1 1 1 1 1 1 1 1 1
0 0 0 0 0 0 0 0 0 0 0 0 0 1 1 1 1 1 1 2 3 3 2 2 3 3 3 2 2 2 1 1 1 1 1 2 2 2 1 1 1 1 1 1 1 1 1 0 0
0 0 0 0 0 0 0 0 0 0 0 0 0 0 0 1 1 2 2 2 2 3 2 2 2 2 2 2 2 2 1 1 1 1 1 1 1 1 0 0 0 0 1 1 1 1 1 0 0
0 0 0 0 0 0 0 0 0 0 0 0 0 0 0 0 1 2 2 2 2 3 3 3 3 2 2 2 2 2 1 1 1 1 0 0 0 0 0 0 0 1 1 1 1 1 1 0 0
0 0 0 0 0 0 0 0 0 0 0 0 0 0 0 0 0 1 2 3 3 3 3 3 3 3 2 2 2 2 1 1 1 1 0 0 0 0 0 0 0 1 1 1 1 1 1 1 0
0 0 0 0 0 0 0 0 0 0 0 0 0 0 0 0 0 0 1 3 3 3 3 4 4 3 3 2 2 2 2 1 1 1 1 0 0 0 0 0 0 1 1 1 1 1 1 1 0
0 0 0 0 0 0 0 0 0 0 0 0 0 0 0 0 0 0 0 1 3 3 3 4 5 4 4 3 3 2 2 2 1 1 1 0 0 0 0 0 0 1 1 1 1 1 1 1 1
0 0 0 0 0 0 0 0 0 0 0 0 0 0 0 0 0 0 0 1 2 3 4 5 6 6 6 5 3 2 2 2 1 1 1 0 0 0 0 0 0 1 1 1 1 1 1 1 1
0 0 0 0 0 0 0 0 0 0 0 0 0 0 0 0 0 0 0 0 1 2 4 5 6 7 6 5 3 2 1 1 1 1 1 0 0 0 0 0 0 1 1 1 1 1 1 1 1
0 0 0 0 0 0 0 0 0 0 0 0 0 0 0 0 0 0 0 0 1 2 3 5 6 6 6 5 3 1 0 0 0 1 1 1 0 0 0 0 0 0 1 1 1 0 1 1 1
0 0 0 0 0 0 0 0 0 0 0 0 0 0 0 0 0 0 0 0 1 1 2 3 4 5 4 3 2 1 0 0 0 0 0 0 1 1 0 0 0 0 0 1 1 0 1 1 1
0 0 0 0 0 0 0 0 0 0 0 0 0 0 0 0 0 0 0 0 1 1 1 1 2 3 2 1 1 1 1 0 0 0 0 0 0 0 0 0 0 0 0 0 0 0 1 1 1
0 0 0 0 0 0 0 0 0 0 0 0 0 0 0 0 0 0 0 0 0 1 0 0 1 1 1 0 1 1 1 1 0 0 0 0 0 0 0 0 0 0 0 0 0 0 0 1 1
0 0 0 0 0 0 0 0 0 0 0 0 0 0 0 0 0 0 0 0 0 0 0 0 0 0 0 0 0 0 0 0 0 0 0 0 0 0 0 0 0 0 0 0 0 0 0 0 1
0 0 0 0 0 0 0 0 0 0 0 0 0 0 0 0 0 0 0 0 0 0 0 0 0 0 0 0 0 0 0 0 0 0 0 0 0 0 0 0 0 0 0 0 0 0 0 0 1
0 0 0 0 0 0 0 0 0 0 0 0 0 0 0 0 0 0 0 0 0 0 0 0 0 0 0 0 0 0 0 0 0 0 0 0 0 0 0 0 0 0 0 0 0 0 0 0 1
0 0 0 0 0 0 0 0 0 0 0 0 0 0 0 0 0 0 0 0 0 0 0 0 0 0 0 0 0 0 0 0 0 0 0 0 0 0 0 0 0 0 0 0 0 0 0 0 0
0 0 0 0 0 0 0 0 0 0 0 0 0 0 0 0 0 0 0 0 0 0 0 0 0 0 0 0 0 0 0 0 0 0 0 0 0 0 0 0 0 0 0 0 0 0 0 0 0
Wind_Speed
8 5 2 4 6 4 3 5 3 1 1 0 2 7 8 5 3 4 2 5 9 8 6 8 10 9 9 10 10 9 10 10 10 10 10 11 11 11 11 11 11 11 11 11 12 12 11 11 12
4 3 4 5 5 2 5 4 3 3 3 3 4 5 6 4 2 5 3 6 10 8 6 6 10 10 9 10 9 9 9 9 10 10 10 10 10 10 10 10 10 10 10 10 10 10 10 11 11
4 2 4 4 3 6 5 3 4 2 1 2 4 4 4 3 3 4 4 9 9 7 5 7 11 10 9 9 9 8 8 9 9 10 10 9 9 9 9 9 9 9 9 9 9 10 10 10 9
3 4 4 3 4 5 4 3 2 1 2 3 4 5 3 1 3 4 7 9 9 6 5 6 10 10 9 9 9 8 8 8 9 9 9 9 9 9 9 9 9 9 8 8 9 9 9 8 8
3 4 3 1 5 4 3 3 2 1 1 1 4 4 2 4 3 8 9 9 9 7 5 6 9 9 9 8 8 8 7 7 8 8 8 9 9 9 9 8 9 8 8 8 8 8 8 7 7
4 4 3 4 5 4 3 2 1 1 1 1 4 4 1 1 5 7 8 8 8 7 5 5 8 8 8 8 7 7 7 7 7 7 8 8 8 8 8 8 8 8 8 7 7 7 7 7 7
4 4 4 5 4 4 3 1 1 2 1 1 3 5 2 1 4 6 7 7 7 6 5 4 4 5 6 7 6 6 6 6 6 6 7 7 6 7 8 8 8 8 7 7 6 6 6 6 6
4 4 2 3 4 4 2 1 0 1 1 1 3 7 4 4 4 6 7 6 6 5 5 4 3 3 3 3 5 5 5 5 5 5 5 5 5 6 6 6 7 7 7 6 6 5 5 5 5
3 3 3 4 4 3 0 1 2 1 3 3 3 2 3 6 6 7 6 5 5 4 3 3 4 3 2 3 4 4 4 4 4 4 4 4 2 3 3 4 5 6 6 6 5 5 4 4 3
3 4 6 2 2 2 0 1 0 2 3 2 3 3 4 6 7 8 7 6 5 4 3 3 3 3 3 2 2 2 2 2 2 2 3 2 2 2 3 4 5 5 5 5 5 5 4 2 1
3 5 3 1 1 0 1 1 1 3 1 2 4 4 4 5 5 6 5 5 5 4 3 3 3 3 3 2 2 1 1 1 1 2 2 2 2 1 1 1 2 2 3 2 3 2 1 1 1
2 2 2 1 1 1 0 1 2 1 2 2 4 6 5 6 5 6 5 4 3 3 2 2 3 3 3 2 2 2 1 1 1 2 2 2 2 2 1 1 2 1 1 1 1 1 1 1 2
3 2 1 1 1 0 1 1 1 1 1 2 4 5 5 5 4 3 3 3 3 3 2 2 3 3 3 2 2 2 2 2 2 2 2 3 2 2 2 1 1 2 2 2 2 2 1 2 2
3 2 1 1 0 0 1 1 2 3 1 4 5 4 4 4 4 3 3 2 2 2 2 2 2 2 2 2 2 2 2 2 2 2 2 3 3 3 2 2 2 2 2 2 3 3 2 2 2
2 1 1 2 2 1 2 2 3 4 3 4 3 3 3 2 3 3 2 2 2 2 2 2 2 2 2 2 2 2 2 2 2 2 2 2 3 3 3 2 2 2 2 2 2 2 2 2 1
2 2 2 4 3 2 3 6 5 2 4 3 2 2 2 1 2 2 2 1 1 2 1 1 1 2 2 1 1 1 1 2 2 1 1 2 2 3 3 2 2 2 2 2 2 2 2 1 1
1 2 4 3 3 2 4 6 4 2 5 4 3 2 1 1 1 0 1 1 1 2 1 1 1 1 1 1 1 1 1 1 1 1 1 1 2 2 2 2 2 2 2 2 2 2 2 2 1
5 4 4 5 3 3 4 6 4 2 4 5 4 3 2 2 2 1 0 1 1 1 1 1 1 1 1 1 1 0 0 1 1 1 1 2 2 2 2 2 2 2 2 1 1 2 1 2 2
4 3 4 4 2 3 6 7 7 4 3 3 3 3 3 3 2 0 1 1 1 1 1 1 1 0 1 0 0 1 1 1 1 1 1 1 2 2 2 1 2 2 2 2 2 2 1 1 1
2 3 2 2 1 1 4 8 6 5 5 6 6 5 4 2 1 0 1 1 1 1 1 1 1 0 0 0 1 1 1 1 1 1 1 1 1 1 1 2 2 2 2 2 2 2 2 1 1
3 5 4 3 2 2 2 6 5 4 5 5 5 5 4 4 3 2 0 0 1 1 0 0 1 0 0 0 0 1 1 1 0 1 1 1 1 1 2 2 2 3 3 3 3 4 4 3 2
5 3 4 3 1 3 1 5 7 5 5 5 5 4 5 4 4 2 1 0 0 1 0 1 1 1 1 0 0 1 1 2 2 2 2 2 2 2 2 2 3 3 3 4 4 3 3 4 3
4 1 1 2 2 2 2 3 8 2 6 8 7 6 6 5 5 4 3 2 1 0 0 1 1 1 1 1 0 1 1 2 1 1 2 2 2 2 2 2 2 2 3 3 4 3 3 3 3
3 3 4 3 2 4 6 5 9 5 8 6 6 6 6 5 3 3 2 1 1 0 1 1 2 2 1 1 0 1 2 2 1 2 2 2 2 2 2 2 2 3 2 3 3 4 4 4 4
3 4 2 2 2 7 3 5 10 6 5 6 7 6 5 4 3 3 2 1 1 0 1 1 1 2 2 1 1 1 2 2 3 3 2 2 2 2 3 3 3 3 3 3 3 3 3 4 4
4 6 6 5 6 5 2 8 8 4 3 3 3 3 3 3 3 3 2 2 1 1 0 1 1 1 2 1 2 2 1 1 2 2 2 3 2 3 3 3 3 3 3 3 3 3 3 3 4
5 4 4 4 1 2 6 6 7 1 1 1 1 2 2 2 2 2 1 1 0 0 1 1 1 1 1 2 2 2 2 1 2 2 2 2 2 2 2 3 3 3 3 3 3 3 4 3 4
3 5 4 4 4 5 5 5 5 4 4 3 2 3 2 2 1 1 0 0 1 1 1 1 1 1 1 1 2 2 2 2 2 1 2 2 3 3 3 3 3 3 3 3 3 3 3 4 4
4 3 4 3 4 4 4 7 4 6 5 5 4 3 3 3 2 1 1 1 1 1 1 1 1 1 2 2 2 2 2 2 2 2 2 3 2 2 2 3 3 3 3 3 3 4 4 4 4
3 5 6 5 4 4 3 9 3 2 2 2 2 1 1 1 1 1 1 0 1 1 2 2 2 2 2 2 2 2 2 2 2 2 2 2 2 2 2 2 2 3 3 3 3 4 4 4 5
Wind_Direction
330 336 41 52 57 57 239 249 238 286 69 62 87 98 104 98 122 147 164 136 134 138 141 140 135 130 125 124 122 123 123 123 123 121 119 117 116 113 109 108 108 107 104 102 101 99 98 97 96
336 354 52 60 97 157 254 249 237 233 190 144 78 82 82 77 81 111 122 138 135 134 134 135 135 131 126 126 125 122 125 128 128 125 122 120 119 117 114 112 111 111 109 107 106 103 100 100 99
333 47 80 83 143 188 216 221 212 240 345 112 75 60 94 114 131 142 148 138 127 126 129 139 132 130 128 126 127 126 127 128 132 128 126 125 123 121 119 118 115 112 113 112 110 107 103 101 100
48 51 60 97 212 225 216 217 208 188 13 49 95 67 59 33 161 149 135 132 125 123 123 136 133 131 129 126 125 123 127 130 131 133 132 131 131 129 127 124 121 118 116 119 118 112 107 103 102
64 84 93 193 235 245 247 255 217 167 147 50 96 98 55 352 91 119 129 130 130 126 122 133 131 132 128 126 125 125 125 127 130 131 132 137 136 133 132 129 126 124 124 123 123 122 115 108 105
65 83 127 208 235 251 269 270 227 161 168 106 96 108 116 47 108 126 128 128 130 129 126 130 127 125 126 128 126 127 128 124 128 132 134 133 139 138 136 134 133 131 132 133 133 127 123 120 116
118 124 178 197 218 248 267 284 159 188 170 201 127 116 138 156 135 130 125 121 120 123 121 116 125 130 129 128 125 124 126 123 124 131 134 132 133 141 142 142 141 139 140 141 142 136 127 131 130
135 122 181 204 198 231 271 26 66 175 178 3 99 136 178 195 145 119 111 109 114 115 117 118 114 117 125 130 122 120 124 122 120 124 126 129 133 141 144 146 147 147 148 150 152 146 141 144 137
101 101 201 208 193 219 290 71 347 12 93 44 50 139 171 142 128 114 108 102 115 120 124 128 126 119 122 133 127 119 118 122 122 124 126 126 132 141 149 154 152 156 159 160 159 155 148 150 137
109 170 215 218 199 187 7 101 158 53 59 60 43 46 88 117 127 131 138 141 144 150 154 147 143 139 132 135 125 124 122 122 120 127 133 134 135 144 148 157 163 165 169 174 171 165 156 147 135
157 192 212 257 278 137 59 21 29 117 111 176 162 144 125 121 128 138 146 151 158 158 159 162 158 150 143 136 135 135 132 129 127 135 140 139 134 135 140 148 166 177 177 176 177 173 174 167 167
164 237 210 248 332 26 70 45 32 79 211 202 164 151 137 132 138 147 144 145 144 140 155 160 161 152 152 147 154 154 153 157 155 165 153 143 143 151 162 168 172 170 178 174 163 178 196 189 188
197 231 250 241 35 69 80 82 116 257 252 83 107 114 126 129 131 133 129 125 124 139 156 158 152 155 160 152 159 155 174 177 179 172 172 164 159 167 176 180 176 177 178 181 181 186 197 206 200
195 197 242 265 322 320 111 318 118 239 125 85 92 118 131 133 130 108 101 118 144 149 148 161 153 147 151 159 164 168 176 179 175 180 186 177 172 175 174 180 186 190 192 194 192 190 188 207 201
116 125 302 256 220 206 107 298 227 219 131 107 109 114 116 125 120 134 154 165 168 157 144 147 153 137 136 159 174 166 176 174 181 191 187 178 177 179 176 177 190 198 198 195 185 184 178 185 195
85 116 227 256 198 184 145 244 253 211 142 151 157 132 112 117 151 167 156 141 139 125 117 113 131 128 135 145 176 179 181 182 192 189 185 185 182 177 174 179 194 196 179 179 181 176 176 190 196
83 195 221 255 215 162 176 237 264 211 159 173 183 188 161 121 51 88 166 146 144 143 139 111 107 120 124 125 155 179 186 184 192 182 179 182 177 176 177 184 191 180 174 182 185 178 175 187 202
204 207 217 222 229 176 208 239 265 238 173 183 189 196 188 186 227 220 140 104 130 140 130 141 124 98 89 81 75 89 180 197 190 193 189 176 176 177 172 179 188 172 169 185 179 183 183 182 192
183 190 221 235 237 194 222 242 247 236 201 197 202 201 207 223 244 219 70 61 65 64 82 119 108 31 85 78 147 204 226 220 213 217 197 191 184 177 175 180 190 185 186 188 181 177 168 192 164
197 214 238 287 311 227 246 259 248 224 214 202 202 209 212 231 287 342 43 47 70 95 89 94 124 193 206 248 241 220 218 213 212 232 243 227 198 191 199 187 199 199 189 183 181 167 171 210 184
220 207 218 228 337 341 300 283 242 235 224 221 212 204 200 194 200 214 250 20 74 82 308 323 301 263 282 316 53 32 51 33 12 247 237 245 234 217 213 203 201 203 196 198 199 188 182 199 225
227 220 205 203 173 269 198 270 264 231 228 225 222 214 209 207 197 194 192 142 178 256 323 356 343 333 339 53 150 185 213 244 238 227 227 249 240 234 224 218 214 208 206 206 207 205 204 191 209
205 197 177 198 178 268 242 235 275 222 227 231 224 218 217 213 199 198 198 196 197 194 41 359 358 357 350 348 234 215 232 241 262 272 234 234 240 236 225 222 218 220 219 213 210 210 211 206 205
132 64 40 38 79 252 222 204 267 223 216 219 219 218 216 212 204 200 193 160 148 63 42 21 15 341 334 331 281 225 231 233 235 259 250 242 245 246 239 231 219 221 225 221 222 217 216 217 217
110 110 53 352 301 248 217 213 249 244 223 207 208 214 211 203 192 185 173 161 157 57 358 352 359 332 330 336 313 275 251 233 225 234 244 249 248 250 240 240 225 221 222 229 226 223 227 221 218
185 160 167 197 223 265 238 231 253 257 239 216 200 198 191 197 198 189 183 170 194 220 271 303 314 306 321 327 316 303 281 251 242 239 238 245 246 247 240 240 238 231 224 230 223 226 231 229 223
163 193 172 143 183 254 253 268 292 261 272 248 200 176 194 202 192 176 156 125 131 290 281 270 274 285 298 300 303 300 301 284 273 264 246 250 255 256 241 233 243 243 234 226 221 226 227 228 229
163 149 123 153 183 242 267 254 240 224 231 237 228 220 208 192 181 178 169 329 312 306 308 315 309 284 291 300 295 305 297 285 271 266 258 254 257 259 252 243 238 243 243 235 227 229 228 227 234
163 167 162 163 179 181 246 262 236 208 205 205 224 219 200 200 195 200 227 276 305 330 343 347 343 339 328 319 311 307 300 302 302 286 274 261 258 252 249 254 252 249 248 243 235 233 229 230 238
200 191 164 175 222 195 204 267 289 212 208 197 217 232 221 201 199 204 206 285 342 332 332 332 332 336 326 323 320 311 307 311 311 301 294 281 270 268 258 257 266 268 265 256 246 242 239 239 242